Погода в Мичуринске

Погода в Мичуринске : погода сейчас, прогноз погоды и архив. Всё, что Вы хотите узнать о погоде в Мичуринске!

Хотите узнать прогноз погоды в Мичуринске? Тогда Вам сюда: Погода в Мичуринске

Поиск расширенной информации на нашем сайте:

Другие новости

Новости СМИ2

Главная страница сайта

Новости сайта

03.07.2017

Напоминаем, что на нашем специализированном сайте Метеоцентр.Азия вы можете получить высокодетализированные автоматические прогнозы погоды по пунктам России, СНГ и мира в авиационном формате (включающие направление и скорость ветра, видимость, явления погоды, количество и форму облачности, нижнюю и верхнюю границу облачности).

Рекомендуем: Купить женские велосипеды giant 2014.

Погода в Мичуринске - сегодня

Время (UTC), дата Ветер
(°,м/с) 
Видим.   Явления Облачность Т
(°С)
Тd
(°С)
f(%) Тe
(°С)
Pmin
(гПа)
dP
(гПа)
Po
(мм)
O2
(г/м3)
Тmin Tmax R s Состояние
почвы
21 15.02.18 140 (ЮВ) 4000 м  слаб. снег  10/0 средняя 
[As op]
-6.4 -10 76 -8  1036.9  0.1  762  315           
03 16.02.18 140 (ЮВ) 4000 м  слаб. снег  10/0 средняя 
[As op]
-6.3 -9.4 79 -8  1036.7  762  315  -6.8    0.0  26  неравномерный
сухой снег
100% 
09 16.02.18 140 (ЮВ) 2000 м  слаб. снег  10/0 средняя 
[As op]
-5.7 -8.7 79 -9  1037.2  0.3  762  315           
18 16.02.18 110 (В) 20000 м    10/0 средняя 
[As op]
-4.9 -9.8 68 -8  1034.2  -0.8  760  313           
21 16.02.18 140 (ЮВ) 20000 м  позёмок  9/0 средняя 
[Ac trans]
-5.2 -9.7 71 -8  1033.7  -0.5  760  313           
03 17.02.18 140 (ЮВ) 4000 м  слаб. снег  10/0 средняя 
[As op]
-7.1 -9.6 82 -11  1031.9  -1.1  758  315  -7.1    0.0  26  неравномерный
сухой снег
100% 
09 17.02.18 110 (В) 4000 м  позёмок{снег}  10/0 средняя 
[As op]
-6.3 -9.9 76 -10  1029.6  -1.3  757  313           
18 17.02.18 140 (ЮВ) 4000 м  слаб. снег  10/0 средняя 
[As op]
-4.8 -6.8 86 -8  1026.2  -0.5  754  310           
21 17.02.18 140 (ЮВ) 2000 м  слаб. снег  10/0 средняя 
[As op]
-5.2 -6.9 88 -8  1025  -1.1  754  310           
03 18.02.18 140 (ЮВ) 4000 м  дымка{снег}  10/0 средняя 
[As op]
-6.7 -8.7 86 -8  1023.2  -1.2  752  312  -6.7    28  неравномерный
сухой снег
100% 
09 18.02.18 140 (ЮВ) 4000 м  слаб. снег  10/0 средняя 
[As op]
-5.8 -8.8 79 -9  1022.3  -0.7  751  310           
18 18.02.18 140 (ЮВ) 4000 м  дымка  10/0 средняя 
[As op]
-5.7 -8.3 82 -7  1021.2  0.1  751  310           
21 18.02.18 200 (Ю) 4000 м  дымка  10/0 средняя 
[As op]
-5.2 -7.3 85 -7  1020.7  -0.5  750  309           
03 19.02.18 180 (Ю) 4000 м  дымка  10/0 средняя 
[As op]
-5.5 -6.9 90 -7  1018.8  -1  749  309  -6.8      28  неравномерный
сухой снег
100% 
06 19.02.18 160 (Ю) 4000 м  дымка  10/0 средняя 
[As op]
-4.5 -6.1 89 -6  1018.8  749  307           
09 19.02.18 230 (ЮЗ) 2000 м  слаб. снег  10/0 средняя 
[As op]
-1.8 -3.9 86 -3  1018.4  -0.1  749  304           
18 19.02.18 230 (ЮЗ) 4000 м  дымка  9/9 1000 м 
[Sc]
-3.7 -7 78 -5  1019.2  0.1  749  307           
21 19.02.18 250 (З) 4000 м  дымка  9/9 600 м 
[Sc]
-3.6 -6.8 78 -5  1018.7  -0.5  749  307           
00 20.02.18 230 (ЮЗ) 4000 м  дымка  ясно 
-7.3 -10.3 79 -9  1018.7  -0.3  749  311           
03 20.02.18 230 (ЮЗ) 4000 м  дымка  10/0 средняя 
[As op]
-8.4 -10.3 86 -10  1018  -0.8  748  312  -9.1      28  неравномерный
сухой снег
100% 
06 20.02.18 270 (З) 4000 м  слаб. снег  10/0 средняя 
[As op]
-6.8 -8.8 86 -8  1018.6  0.7  749  310           
09 20.02.18 290 (З) 20000 м  {снег}  8/8 600 м 
[Sc]
-3.6 -9.3 65 -5  1019.1  0.8  749  307           
18 20.02.18 270 (З) 10 км    4/0 верхняя 
[Ci fib]
-7.7 -11.7 73 -9  1021.4  751  312           
21 20.02.18 230 (ЮЗ) 4000 м    9/9 600 м 
[Sc]
-11.5 -13.5 85 -13  1021.7  751  317           
06 21.02.18 тихо ()   4000 м  дымка  ясно 
-13.3 -16 80 -13  1023.7  0.7  752  320  -17         
Время (UTC), дата Ветер
(°,м/с) 
Видим.   Явления Облачность Т
(°С)
Тd
(°С)
f(%) Тe
(°С)
Pmin
(гПа)
dP
(гПа)
Po
(мм)
O2
(г/м3)
Тmin Tmax R s Состояние
почвы

Для получения пояснительной информации подведите курсор к названию столбца.

ПОГОДА в Мичуринске - архив

Всё, что Вы хотите узнать о погоде в Мичуринске - удобно и подробно!

Выберите нужную дату (начиная с 1 января 2015* года) и нажмите кнопку "Найти".
Будут отображены архивные сводки погоды по пункту Мичуринск, начиная с указанной даты.


Отображать данные в формате CSV (для использования в таблицах Excel)


Внимание! Наш архив погоды предназначен исключительно для личного некоммерческого использования в познавательных целях. Если Вам необходимы официальные справки о состоянии погоды (для производственных, юридических, коммерческих и т.п. целей), обращайтесь в органы Росгидромета.

*Примечание: данная дата относится к архиву по метеостанциям СССР (Россия, СНГ, Балтия).
Архив по метеостанциям Зарубежной Европы и Азии (кроме Китая) хранится 10 дней, по другим регионам земного шара (Китай, Африка, Америка, Австралия, Океания) - 1 день.

Мичуринск - район местоположения метеостанции


Название, широта, долгота, высота метеостанции:
Мичуринск 52.9°ш. 40.5°д. 158 м над ур. моря [Российская Федерация]

Дополнительная информация

В oтличие oт бoльшинства пoгoдных сайтoв мы публикуем пoдрoбную метеoинфoрмацию в детальнoм прoфессиoнальнoм фoрмате.

Характеристики температуры и влажнoсти вoздуха измеряются на высoте 2 м в тени вдали oт зданий и деревьев.
Скoрoсть ветра измеряется на высoте 10 м (на урoвне рoста челoвека скoрoсть ветра ниже в 1.5-2 раза). Если метеoстанция нахoдится в гoрoде или в лесу, тo скoрoсть ветра занижена на 2-4 м/с пo сравнению с oткрытым местoм. Скoрoсть ветра над акватoриями крупных рек и oзёр, а также на вершинах хoлмoв на 2-5 м/с выше, чем в oбычных услoвиях.
Атмoсфернoе давление в разных тoчках местнoсти мoжет значительнo oтличаться oт давления на метеoстанции, в зависимoсти oт услoвий рельефа (при пoдъёме на 10 м давление пoнижается примернo на 1 мм рт.ст.).